[[{"header":{"parameterUnit":"m.s-1","parameterCategory":1,"la1":30.2991,"la2":30.254,"lo1":-89.0895,"lo2":-89.0444,"dy":0.0017,"dx":0.0017,"nx":28,"ny":28,"refTime":"2023-07-19T03:00:00:Z","depth":0,"parameterNumber":2,"parameterNumberName":"U-component_of_WINDS"},"data":[0,0,0,0,0,0,0,0,0,0,0,0,0,0,0,0,0,0,0,0,0,0,0,0,0,0,0,0,0,0,0,0,0,0,0,0,0,0,0,0,0,0,0,0,0,0,0,0,0,0,0,0,0,0,0,0,0,0,-0.4807,-0.4806,0,-0.4703,-0.4702,-0.47,-0.4634,-0.4633,-0.4633,-0.4632,-0.4525,-0.4523,-0.452,0,0,0,0,0,0,0,0,0,0,0,0,0,-0.4951,-0.4949,-0.4807,-0.4806,-0.4805,-0.4703,-0.4701,-0.47,-0.4634,-0.4633,-0.4633,-0.4632,-0.4526,-0.4523,-0.452,0,0,0,0,0,0,0,0,0,0,0,0,0,-0.4872,-0.4948,-0.4808,-0.4759,-0.4754,-0.4703,-0.4701,-0.47,-0.4634,-0.4633,-0.4633,-0.4632,-0.4527,-0.4523,-0.452,-0.4509,0,0,-0.4508,-0.4507,0,0,0,0,0,0,0,0,-0.4876,-0.4866,-0.4768,-0.4763,-0.4756,-0.4681,-0.4713,-0.4636,-0.4634,-0.4679,-0.4632,-0.4632,-0.4577,-0.4569,-0.4551,-0.4504,-0.4499,-0.4508,-0.4506,-0.4504,-0.4503,0,0,0,0,0,0,0,-0.4882,-0.4871,-0.4766,-0.4766,-0.476,-0.4743,-0.4731,-0.4698,-0.4633,-0.4675,-0.467,-0.4659,-0.4574,-0.4555,-0.4548,-0.4498,-0.4508,-0.4505,-0.4502,-0.4501,-0.4437,-0.4438,0,0,0,0,0,0,-0.4895,-0.4876,-0.4769,-0.4763,-0.4816,-0.4741,-0.4728,-0.4706,-0.4633,-0.4622,-0.4659,-0.4656,-0.4562,-0.4553,-0.4544,-0.4527,-0.4504,-0.4501,-0.4499,-0.4437,-0.4437,-0.4438,0,0,0,0,0,0,-0.4898,-0.4886,-0.4774,-0.4818,-0.4802,-0.4739,-0.4715,-0.4704,-0.4684,-0.4621,-0.4609,-0.4652,-0.4561,-0.4549,-0.4518,-0.4523,-0.4499,-0.4496,-0.4436,-0.4437,-0.4438,-0.4494,0,0,0,0,0,0,-0.4903,-0.4888,-0.4882,-0.4818,-0.48,-0.4749,-0.4715,-0.4702,-0.4678,-0.4673,-0.4611,-0.46,-0.4559,-0.4524,-0.4515,-0.4517,-0.4493,-0.4435,-0.4436,-0.4437,-0.4491,-0.4496,-0.4501,0,0,0,0,0,-0.4908,-0.4902,-0.4883,-0.487,-0.4792,-0.475,-0.4739,-0.4693,-0.4679,-0.4673,-0.4633,-0.4602,-0.4524,-0.4522,-0.451,-0.4512,-0.4435,-0.4436,-0.4437,-0.4489,-0.4495,-0.4501,0,0,0,0,0,0,-0.4968,-0.4893,-0.487,-0.4843,-0.4804,-0.4739,-0.473,-0.4701,-0.4664,-0.4661,-0.4605,-0.4592,-0.4567,-0.4536,-0.4535,-0.4498,-0.4476,-0.4475,-0.4519,-0.4524,-0.4529,-0.4537,-0.449,0,0,0,0,0,-0.4979,-0.495,-0.4886,-0.4868,-0.4849,-0.4794,-0.4773,-0.4741,-0.4698,-0.468,-0.4637,-0.4597,-0.4563,-0.4542,-0.4507,-0.4486,-0.4473,-0.4482,-0.4487,-0.4491,-0.4491,-0.4479,-0.4483,-0.4442,-0.4442,-0.4442,0,0,-0.4999,-0.4955,-0.494,-0.4879,-0.4844,-0.4817,-0.478,-0.4752,-0.4731,-0.4676,-0.4644,-0.4612,-0.4562,-0.4537,-0.4523,-0.4511,-0.4499,-0.4493,-0.4496,-0.4494,-0.4481,-0.4485,-0.4488,-0.4443,-0.4443,-0.4443,0,0,-0.5023,-0.4986,-0.4968,-0.4934,-0.4882,-0.4845,-0.4841,-0.4781,-0.4757,-0.4725,-0.4684,-0.4658,-0.4601,-0.4568,-0.4544,-0.4557,-0.4527,-0.4547,-0.4572,-0.4561,-0.4564,-0.4567,-0.4572,-0.4575,-0.4547,-0.4547,-0.4547,0,-0.5056,-0.5012,-0.4962,-0.4937,-0.4912,-0.4862,-0.4844,-0.4813,-0.4753,-0.4737,-0.4724,-0.4652,-0.4615,-0.4582,-0.4585,-0.4567,-0.4561,-0.4554,-0.4568,-0.457,-0.4571,-0.4576,-0.4578,-0.455,-0.455,-0.4549,-0.4549,0,-0.5055,-0.5025,-0.5017,-0.496,-0.4934,-0.4913,-0.4861,-0.484,-0.4811,-0.4776,-0.4744,-0.4698,-0.4654,-0.4644,-0.4614,-0.4607,-0.4601,-0.4578,-0.4555,-0.4579,-0.4583,-0.4584,-0.4554,-0.4553,-0.4552,-0.4551,0,0,-0.5114,-0.5031,-0.5028,-0.5003,-0.4942,-0.4919,-0.4895,-0.4852,-0.4837,-0.4797,-0.4776,-0.473,-0.4709,-0.4682,-0.4649,-0.4639,-0.4654,-0.4617,-0.4616,-0.4627,-0.4644,-0.4662,-0.4664,-0.4634,-0.4634,-0.4634,-0.4648,0,-0.5129,-0.5084,-0.504,-0.5011,-0.4983,-0.4936,-0.4915,-0.4877,-0.4844,-0.4816,-0.4779,-0.4747,-0.4722,-0.4705,-0.4694,-0.4654,-0.4656,-0.4653,-0.4615,-0.4614,-0.4629,-0.4666,-0.4684,-0.47,-0.4649,-0.4649,-0.4649,0,-0.5141,-0.5104,-0.5073,-0.5016,-0.5003,-0.4985,-0.4943,-0.4917,-0.4872,-0.4849,-0.4819,-0.4784,-0.4758,-0.4738,-0.4701,-0.47,-0.4682,-0.466,-0.466,-0.4655,-0.4634,-0.4663,-0.4704,-0.4707,-0.4651,-0.4651,-0.4651,0,-0.5189,-0.5131,-0.5105,-0.5084,-0.5017,-0.5006,-0.4977,-0.4932,-0.491,-0.4873,-0.4858,-0.4819,-0.4797,-0.4768,-0.4724,-0.4713,-0.4693,-0.4668,-0.4673,-0.4674,-0.4671,-0.4672,-0.4711,-0.4659,-0.4659,-0.4659,-0.4659,0,-0.5211,-0.5194,-0.5125,-0.5109,-0.5089,-0.5038,-0.502,-0.4987,-0.4948,-0.4925,-0.4882,-0.4862,-0.4804,-0.4777,-0.4742,-0.4718,-0.4708,-0.4689,-0.4681,-0.4694,-0.4696,-0.4681,-0.468,-0.4659,-0.4659,-0.4659,-0.4659,0,-0.5261,-0.5214,-0.5183,-0.5122,-0.5106,-0.5094,-0.5042,-0.5025,-0.499,-0.4962,-0.4953,-0.4897,-0.4864,-0.4817,-0.4768,-0.4745,-0.4726,-0.4711,-0.4742,-0.4736,-0.4744,-0.4745,-0.4775,-0.4777,-0.4724,-0.4724,-0.4725,0,-0.5279,-0.5264,-0.5202,-0.5184,-0.5157,-0.5128,-0.5105,-0.5055,-0.5033,-0.4982,-0.4971,-0.4934,-0.4902,-0.4851,-0.4807,-0.477,-0.4755,-0.4768,-0.4749,-0.4763,-0.4756,-0.4758,-0.4757,-0.4773,-0.4773,-0.4774,-0.4775,0,-0.5316,-0.5293,-0.5262,-0.5222,-0.5196,-0.5162,-0.5127,-0.5115,-0.5057,-0.5035,-0.5,-0.4975,-0.4926,-0.4891,-0.4848,-0.4819,-0.4788,-0.4781,-0.478,-0.4794,-0.4813,-0.4804,-0.4755,-0.4781,-0.478,-0.478,-0.4779,-0.4779,-0.5351,-0.5336,-0.529,-0.5257,-0.5225,-0.5193,-0.5175,-0.5137,-0.5107,-0.5063,-0.5036,-0.5003,-0.4959,-0.4899,-0.4872,-0.4846,-0.4833,-0.4832,-0.4832,-0.4832,-0.4838,-0.4817,-0.4838,-0.4838,-0.4837,-0.4837,-0.4837,0,-0.5386,-0.5355,-0.5324,-0.5276,-0.525,-0.5222,-0.5182,-0.5162,-0.5134,-0.5096,-0.5065,-0.5026,-0.4991,-0.4945,-0.4907,-0.4895,-0.488,-0.4887,-0.4888,-0.4882,-0.4851,-0.4855,-0.49,-0.49,-0.49,-0.49,-0.49,-0.49,-0.5402,-0.5377,-0.5349,-0.5308,-0.5276,-0.5243,-0.5223,-0.5193,-0.5163,-0.5121,-0.5092,-0.5062,-0.5021,-0.498,-0.4948,-0.4935,-0.4923,-0.4935,-0.4918,-0.489,-0.4884,-0.4879,-0.4883,-0.4933,-0.4933,-0.4952,-0.4952,-0.4952]},{"header":{"parameterUnit":"m.s-1","parameterCategory":1,"la1":30.2991,"la2":30.254,"lo1":-89.0895,"lo2":-89.0444,"dy":0.0017,"dx":0.0017,"nx":28,"ny":28,"refTime":"2023-07-19T03:00:00:Z","depth":0,"parameterNumber":3,"parameterNumberName":"V-component_of_WINDS"},"data":[0,0,0,0,0,0,0,0,0,0,0,0,0,0,0,0,0,0,0,0,0,0,0,0,0,0,0,0,0,0,0,0,0,0,0,0,0,0,0,0,0,0,0,0,0,0,0,0,0,0,0,0,0,0,0,0,0,0,4.2951,4.295,0,4.2896,4.2895,4.2894,4.2872,4.2872,4.2873,4.2873,4.2811,4.2809,4.2807,0,0,0,0,0,0,0,0,0,0,0,0,0,4.3032,4.303,4.2951,4.295,4.2949,4.2896,4.2895,4.2894,4.2872,4.2873,4.2873,4.2873,4.2812,4.2809,4.2807,0,0,0,0,0,0,0,0,0,0,0,0,0,4.2989,4.303,4.2951,4.2932,4.293,4.2896,4.2895,4.2894,4.2872,4.2873,4.2873,4.2873,4.2812,4.281,4.2807,4.2786,0,0,4.2799,4.2798,0,0,0,0,0,0,0,0,4.2991,4.2986,4.2935,4.2933,4.2931,4.2891,4.2901,4.2858,4.2872,4.2894,4.2873,4.2873,4.2837,4.2832,4.2821,4.2783,4.278,4.2799,4.2797,4.2796,4.2795,0,0,0,0,0,0,0,4.2994,4.2988,4.2929,4.2935,4.2932,4.2925,4.2919,4.2893,4.2865,4.2892,4.289,4.2884,4.2836,4.2824,4.282,4.278,4.2799,4.2796,4.2795,4.2794,4.2722,4.2722,0,0,0,0,0,0,4.3001,4.299,4.293,4.2927,4.2962,4.2923,4.2917,4.2904,4.2865,4.2859,4.2884,4.2884,4.2829,4.2823,4.2818,4.2791,4.2796,4.2793,4.2792,4.2722,4.2722,4.2722,0,0,0,0,0,0,4.3003,4.2996,4.2933,4.2958,4.295,4.2922,4.2907,4.2902,4.2891,4.2859,4.2854,4.2878,4.2828,4.2821,4.2795,4.2789,4.2792,4.279,4.2723,4.2722,4.2722,4.2738,0,0,0,0,0,0,4.3005,4.2997,4.2989,4.2958,4.2949,4.2912,4.2907,4.2901,4.2887,4.2885,4.2852,4.2846,4.2828,4.2799,4.2792,4.2785,4.2788,4.2723,4.2722,4.2722,4.2737,4.2738,4.2738,0,0,0,0,0,4.3008,4.2994,4.2989,4.2982,4.2939,4.2912,4.2906,4.2887,4.2886,4.2878,4.2858,4.2847,4.2791,4.2796,4.2788,4.278,4.2723,4.2723,4.2722,4.2737,4.2738,4.2738,0,0,0,0,0,0,4.3023,4.299,4.2984,4.296,4.2939,4.2908,4.2897,4.2888,4.2865,4.2865,4.284,4.2833,4.2808,4.2791,4.2799,4.2759,4.2756,4.2754,4.277,4.277,4.2771,4.2775,4.2785,0,0,0,0,0,4.3024,4.3006,4.2977,4.2959,4.2949,4.2925,4.2913,4.29,4.2877,4.2867,4.2845,4.2822,4.2798,4.2783,4.276,4.2735,4.2727,4.2726,4.2726,4.2727,4.2725,4.271,4.2709,4.2719,4.2719,4.2719,0,0,4.3024,4.3004,4.2994,4.2962,4.2944,4.2925,4.2918,4.2897,4.2883,4.2863,4.2838,4.2821,4.2793,4.2767,4.2754,4.2752,4.272,4.2726,4.2726,4.2724,4.271,4.2709,4.2708,4.2719,4.2719,4.2719,0,0,4.3016,4.3,4.2983,4.2966,4.2941,4.2925,4.2921,4.2892,4.2881,4.2855,4.2841,4.2822,4.2782,4.2763,4.2748,4.2735,4.2724,4.2728,4.2729,4.2716,4.2715,4.2714,4.2709,4.2708,4.2726,4.2726,4.2726,0,4.302,4.2992,4.2975,4.2956,4.2942,4.2927,4.2909,4.2893,4.286,4.285,4.2849,4.28,4.278,4.275,4.2747,4.2736,4.273,4.2731,4.2717,4.2716,4.2715,4.271,4.2708,4.2727,4.2727,4.2727,4.2727,0,4.2998,4.2979,4.2969,4.294,4.2925,4.2907,4.2886,4.2872,4.2861,4.2846,4.282,4.2795,4.2768,4.2759,4.2748,4.2728,4.2727,4.2722,4.2718,4.2715,4.271,4.2708,4.2728,4.2728,4.2728,4.2727,0,0,4.2996,4.2961,4.2957,4.2944,4.2916,4.29,4.2881,4.2856,4.2845,4.2823,4.2806,4.2774,4.2769,4.2752,4.2738,4.2726,4.2718,4.2722,4.2721,4.2722,4.2694,4.2699,4.2697,4.2711,4.271,4.271,4.2697,0,4.2984,4.2952,4.2937,4.291,4.2892,4.2878,4.2861,4.2841,4.2826,4.2808,4.279,4.2768,4.2763,4.2753,4.2741,4.2722,4.2712,4.2722,4.2693,4.2693,4.2701,4.2694,4.2699,4.2687,4.2695,4.2694,4.2694,0,4.2966,4.2947,4.2919,4.2894,4.2886,4.2872,4.2848,4.2831,4.2808,4.2798,4.278,4.2767,4.2746,4.2745,4.2714,4.2722,4.2709,4.2698,4.2697,4.2693,4.2693,4.269,4.2683,4.2682,4.2691,4.2691,4.2691,0,4.2967,4.2935,4.2914,4.2904,4.2874,4.2864,4.2851,4.2828,4.2815,4.2793,4.2784,4.276,4.2747,4.2728,4.2708,4.271,4.268,4.2677,4.267,4.267,4.2663,4.2664,4.2654,4.2656,4.2656,4.2656,4.2656,0,4.2955,4.2939,4.2915,4.2902,4.2884,4.2866,4.2847,4.2833,4.2813,4.2796,4.2782,4.2766,4.2742,4.2723,4.2707,4.2684,4.2678,4.2668,4.2664,4.267,4.2671,4.2661,4.2661,4.2656,4.2656,4.2656,4.2656,0,4.2954,4.2937,4.2914,4.2889,4.2882,4.2869,4.2846,4.2833,4.2818,4.2797,4.2791,4.2767,4.2744,4.2723,4.2692,4.2682,4.2658,4.2653,4.2667,4.2665,4.2659,4.2659,4.2641,4.2638,4.2642,4.2642,4.2642,0,4.2947,4.2935,4.2909,4.2898,4.2885,4.2867,4.2854,4.2836,4.2822,4.2796,4.2786,4.2763,4.2743,4.2707,4.2685,4.2661,4.2655,4.2651,4.2651,4.2658,4.2655,4.2656,4.2655,4.2651,4.2651,4.2651,4.2651,0,4.2937,4.293,4.2912,4.2892,4.2878,4.286,4.2842,4.2834,4.2812,4.2797,4.2775,4.276,4.273,4.2706,4.2681,4.2665,4.2654,4.2651,4.2648,4.2653,4.2662,4.2657,4.2667,4.2651,4.2651,4.2651,4.2651,4.2651,4.2932,4.2921,4.2902,4.2883,4.2868,4.2852,4.2839,4.2823,4.2805,4.278,4.277,4.2748,4.2725,4.269,4.2675,4.2656,4.2653,4.2649,4.2648,4.2647,4.2648,4.2665,4.2651,4.2651,4.2651,4.2651,4.2651,0,4.2921,4.2909,4.2892,4.2869,4.2854,4.2848,4.2828,4.2815,4.2796,4.2777,4.2759,4.2733,4.2711,4.2689,4.2665,4.2654,4.2649,4.2648,4.2649,4.2645,4.2651,4.2656,4.2653,4.2653,4.2653,4.2653,4.2653,4.2653,4.2914,4.2895,4.2886,4.2859,4.2846,4.2825,4.2815,4.2799,4.2784,4.2757,4.274,4.2726,4.2706,4.2681,4.266,4.2654,4.2645,4.2647,4.2639,4.2645,4.2645,4.2645,4.2649,4.2645,4.2645,4.2635,4.2635,4.2635]}]]